EW3148 Weather Reports


time (UTC)temp
C
wind
direction
speed
KPH
gust
KPH
rain 1hr
cm
rain 24hr
cm
rain mn
cm
humidity
%
barometer
mb
20260903182039 36 165 6.4 17.7 0.00 0.00 0.00 47 1009.6
20260903181023 36 197 3.2 16.1 0.00 0.00 0.00 47 1009.7
20260903180042 36 208 4.8 24.1 0.00 0.00 0.00 46 1009.8
20260903175047 36 166 6.4 24.1 0.00 0.00 0.00 49 1009.9
20260903174107 35 163 8.0 24.1 0.00 0.00 0.00 49 1009.8
20260903173123 35 155 3.2 16.1 0.00 0.00 0.00 51 1010.0
20260903171006 35 173 6.4 19.3 0.00 0.00 0.00 52 1010.3
20260903170022 35 200 4.8 11.3 0.00 0.00 0.00 53 1010.5
20260903165034 34 246 4.8 17.7 0.00 0.00 0.00 54 1010.5
20260903164040 33 196 6.4 24.1 0.00 0.00 0.00 56 1010.6
20260903161909 33 219 6.4 19.3 0.00 0.00 0.00 57 1010.6
20260903160932 32 202 3.2 16.1 0.00 0.00 0.00 59 1010.6
20260903155931 32 231 6.4 20.9 0.00 0.00 0.00 59 1010.6
20260903153739 31 184 4.8 22.5 0.00 0.00 0.00 64 1010.6
20260903152753 31 255 6.4 22.5 0.00 0.00 0.00 65 1010.5
20260903150641 30 218 4.8 22.5 0.00 0.00 0.00 68 1010.5
20260903144525 29 173 4.8 14.5 0.00 0.00 0.00 72 1010.4
20260903142356 28 214 4.8 24.1 0.00 0.00 0.00 75 1010.4
20260903141419 28 151 6.4 19.3 0.00 0.00 0.00 77 1010.4
20260903140426 28 234 6.4 22.5 0.00 0.00 0.00 78 1010.4
20260903133207 27 215 4.8 20.9 0.00 0.00 0.00 83 1010.6
20260903131059 27 210 6.4 20.9 0.00 0.00 0.00 84 1010.6
20260903130048 27 213 4.8 20.9 0.00 0.00 0.00 84 1010.5
20260903125026 26 175 8.0 20.9 0.00 0.00 0.00 85 1010.4
20260903123952 26 165 4.8 22.5 0.00 0.00 0.00 85 1010.5
20260903122930 26 186 6.4 22.5 0.00 0.00 0.00 85 1010.4
20260903121919 26 177 4.8 16.1 0.00 0.00 0.00 86 1010.3
20260903120913 26 202 4.8 19.3 0.00 0.00 0.00 86 1010.2
20260903115913 26 194 4.8 27.4 0.00 0.00 0.00 86 1010.0
20260903114901 26 171 6.4 27.4 0.00 0.00 0.00 86 1009.9
20260903113828 26 205 6.4 19.3 0.00 0.00 0.00 86 1009.9
20260903112846 26 176 6.4 19.3 0.00 0.00 0.00 86 1010.0
20260903110720 26 186 6.4 24.1 0.00 0.00 0.00 86 1009.9
20260903103356 26 175 8.0 20.9 0.00 0.00 0.00 88 1009.7
20260903102341 26 165 8.0 20.9 0.00 0.00 0.00 88 1009.6
20260903100206 26 175 6.4 14.5 0.00 0.00 0.00 88 1009.7
20260903094107 26 161 4.8 16.1 0.00 0.00 0.00 88 1009.8
20260903091925 26 188 6.4 16.1 0.00 0.00 0.00 87 1009.9
20260903090852 26 163 6.4 20.9 0.00 0.00 0.00 87 1010.0
20260903084654 26 204 8.0 22.5 0.00 0.00 0.00 86 1009.9
20260903083700 26 198 8.0 22.5 0.00 0.00 0.00 86 1009.9
20260903082641 26 165 8.0 22.5 0.00 0.00 0.00 85 1010.0
20260903080547 26 174 6.4 17.7 0.00 0.00 0.00 84 1010.0
20260903075601 26 191 6.4 17.7 0.00 0.00 0.00 84 1010.1
20260903074608 26 146 8.0 19.3 0.00 0.00 0.00 84 1010.1
20260903073538 26 193 8.0 19.3 0.00 0.00 0.00 83 1010.2
20260903072511 26 159 8.0 22.5 0.00 0.00 0.00 82 1010.2
20260903070418 27 174 8.0 20.9 0.00 0.00 0.00 81 1010.2
20260903065344 27 210 8.0 20.9 0.00 0.00 0.00 80 1010.3
20260903063226 27 155 8.0 24.1 0.00 0.00 0.00 78 1010.3
20260903062237 27 180 9.7 24.1 0.00 0.00 0.00 77 1010.4
20260903061214 27 205 9.7 32.2 0.00 0.00 0.00 75 1010.5
20260903060231 28 202 9.7 32.2 0.00 0.00 0.00 73 1010.5
20260903054050 28 170 9.7 24.1 0.00 0.00 0.00 70 1010.4
20260903053034 28 153 9.7 24.1 0.00 0.00 0.00 69 1010.5
20260903052017 28 133 9.7 20.9 0.00 0.00 0.00 68 1010.5
20260903051009 28 153 8.0 20.9 0.00 0.00 0.00 67 1010.4
20260903044921 29 167 6.4 19.3 0.00 0.00 0.00 65 1010.2
20260903043939 29 173 4.8 19.3 0.00 0.00 0.00 64 1010.2
20260903042953 29 128 4.8 12.9 0.00 0.00 0.00 64 1010.1
20260903042011 29 117 4.8 14.5 0.00 0.00 0.00 63 1010.1
20260903040946 30 128 4.8 16.1 0.00 0.00 0.00 62 1010.0
20260903035959 30 126 4.8 16.1 0.00 0.00 0.00 62 1009.9
20260903035015 30 69 4.8 20.9 0.00 0.00 0.00 60 1010.0
20260903034024 30 181 6.4 20.9 0.00 0.00 0.00 59 1010.0
20260903031826 30 202 3.2 11.3 0.00 0.00 0.00 58 1009.8
20260903030811 31 113 3.2 11.3 0.00 0.00 0.00 57 1009.5
20260903023533 31 119 3.2 11.3 0.00 0.00 0.00 55 1009.0
20260903021424 31 107 1.6 9.7 0.00 0.00 0.00 53 1008.6
20260903020415 32 112 3.2 9.7 0.00 0.00 0.00 53 1008.4
20260903015403 32 117 1.6 4.8 0.00 0.00 0.00 51 1008.3
20260903014334 32 109 1.6 4.8 0.00 0.00 0.00 50 1008.3
20260903012226 33 99 0.0 3.2 0.00 0.00 0.00 47 1008.1
20260903011250 34 90 0.0 3.2 0.00 0.00 0.00 46 1008.0
20260903005150 35 128 0.0 1.6 0.00 0.00 0.00 43 1008.0
20260903004152 35 128 0.0 1.6 0.00 0.00 0.00 42 1008.1
20260903003156 35 128 1.6 4.8 0.00 0.00 0.00 41 1008.0
20260903001035 36 168 1.6 6.4 0.00 0.00 0.00 40 1008.1
20260903000044 36 161 0.0 4.8 0.00 0.00 0.00 40 1008.1
20260902233928 37 174 1.6 8.0 0.00 0.00 0.00 38 1008.0
20260902232859 38 174 1.6 6.4 0.00 0.00 0.00 37 1008.1
20260902231827 38 178 0.0 12.9 0.00 0.00 0.00 37 1008.2
20260902230825 38 211 1.6 12.9 0.00 0.00 0.00 38 1008.2
20260902225757 38 216 1.6 12.9 0.00 0.00 0.00 38 1008.2
20260902224739 37 236 3.2 12.9 0.00 0.00 0.00 39 1008.2
20260902223718 37 148 4.8 11.3 0.00 0.00 0.00 40 1008.2
20260902220408 36 161 3.2 9.7 0.00 0.00 0.00 43 1008.5
20260902215425 36 197 3.2 9.7 0.00 0.00 0.00 44 1008.5
20260902214407 36 209 6.4 14.5 0.00 0.00 0.00 44 1008.6
20260902212305 36 199 6.4 16.1 0.00 0.00 0.00 46 1008.9
20260902211258 36 182 4.8 16.1 0.00 0.00 0.00 44 1009.0
20260902210253 36 193 3.2 19.3 0.00 0.00 0.00 45 1009.0
20260902205236 36 176 4.8 19.3 0.00 0.00 0.00 44 1009.1
20260902203031 38 222 3.2 12.9 0.00 0.00 0.00 39 1009.3
20260902200858 37 261 3.2 12.9 0.00 0.00 0.00 41 1009.6
20260902195914 36 157 3.2 9.7 0.00 0.00 0.00 42 1009.8
20260902194848 36 31 3.2 9.7 0.00 0.00 0.00 43 1010.0
20260902193831 35 56 3.2 11.3 0.00 0.00 0.00 43 1010.1
20260902192834 36 101 3.2 11.3 0.00 0.00 0.00 43 1010.2
20260902191819 36 76 3.2 8.0 0.00 0.00 0.00 43 1010.4
20260902190822 36 47 4.8 14.5 0.00 0.00 0.00 43 1010.4
20260902185844 37 51 1.6 14.5 0.00 0.00 0.00 41 1010.6
20260902184826 37 215 3.2 14.5 0.00 0.00 0.00 38 1010.7
20260902183817 39 201 3.2 14.5 0.00 0.00 0.00 37 1010.8